BAW11J KJFK-EGLL

Flight info

Callsign BAW11J
Flight time N/A
Altitude 37000
Route BETTE DCT ACK DCT BRADD N427A ELSIR/M083F390 NATV GISTI/N0473F390 DCT ENJEX DCT AVZAC DCT INFEC DCT JETZI DCT AMFUL DCT ORZEB/N0382F230 P2 SIRIC
Aircraft B772/H-SDE1E3FGHIJ3J5J6M1M2P2RWXYZ/LB1D1

Departure

Time 2026-05-05 22:27
Airport John F. Kennedy International Airport (KJFK)

Arrival

Time N/A
Airport London Heathrow Airport (EGLL)
Time Latitude Longitude Altitude Speed Heading
2026-05-05 21:44 40.64913 -73.79057 28 ft 0 kts 172°
2026-05-05 21:47 40.64913 -73.79058 28 ft 0 kts 172°
2026-05-05 21:50 40.64914 -73.79058 28 ft 0 kts 172°
2026-05-05 22:00 40.64915 -73.79058 19 ft 0 kts 172°
2026-05-05 22:11 40.64916 -73.79058 28 ft 0 kts 172°
2026-05-05 22:16 40.64920 -73.79059 27 ft 3 kts 172°
2026-05-05 22:16 40.64940 -73.79062 27 ft 3 kts 169°
2026-05-05 22:16 40.64957 -73.79067 27 ft 3 kts 149°
2026-05-05 22:17 40.64968 -73.79080 26 ft 3 kts 94°
2026-05-05 22:17 40.64964 -73.79103 26 ft 2 kts 59°
2026-05-05 22:17 40.64955 -73.79126 25 ft 3 kts 64°
2026-05-05 22:17 40.64947 -73.79145 26 ft 0 kts 59°
2026-05-05 22:18 40.64947 -73.79146 26 ft 0 kts 59°
2026-05-05 22:19 40.64951 -73.79136 25 ft 6 kts 59°
2026-05-05 22:20 40.65005 -73.79017 28 ft 20 kts 61°
2026-05-05 22:20 40.65053 -73.78921 28 ft 12 kts 41°
2026-05-05 22:20 40.65125 -73.78872 28 ft 12 kts 43°
2026-05-05 22:20 40.65146 -73.78770 28 ft 12 kts 77°
2026-05-05 22:21 40.65179 -73.78673 27 ft 12 kts 60°
2026-05-05 22:21 40.65221 -73.78579 30 ft 13 kts 60°
2026-05-05 22:21 40.65265 -73.78460 28 ft 15 kts 77°
2026-05-05 22:21 40.65244 -73.78332 30 ft 15 kts 120°
2026-05-05 22:22 40.65193 -73.78214 29 ft 15 kts 120°
2026-05-05 22:22 40.65140 -73.78098 27 ft 15 kts 121°
2026-05-05 22:22 40.65087 -73.77981 27 ft 15 kts 121°
2026-05-05 22:22 40.65035 -73.77864 30 ft 15 kts 121°
2026-05-05 22:23 40.64981 -73.77748 27 ft 15 kts 122°
2026-05-05 22:23 40.64927 -73.77632 30 ft 15 kts 122°
2026-05-05 22:23 40.64873 -73.77517 29 ft 15 kts 122°
2026-05-05 22:23 40.64819 -73.77400 27 ft 15 kts 121°
2026-05-05 22:24 40.64767 -73.77285 27 ft 15 kts 119°
2026-05-05 22:24 40.64778 -73.77160 27 ft 15 kts 55°
2026-05-05 22:24 40.64840 -73.77044 25 ft 17 kts 54°
2026-05-05 22:24 40.64909 -73.76918 27 ft 17 kts 54°
2026-05-05 22:25 40.64977 -73.76793 29 ft 17 kts 57°
2026-05-05 22:25 40.64982 -73.76647 25 ft 10 kts 87°
2026-05-05 22:25 40.65029 -73.76581 31 ft 10 kts 32°
2026-05-05 22:25 40.65086 -73.76526 30 ft 10 kts 55°
2026-05-05 22:26 40.65079 -73.76439 27 ft 10 kts 119°
2026-05-05 22:26 40.65031 -73.76372 27 ft 10 kts 162°
2026-05-05 22:26 40.64988 -73.76384 27 ft 0 kts 208°
2026-05-05 22:26 40.64940 -73.76418 26 ft 34 kts 209°
2026-05-05 22:27 40.64517 -73.76745 30 ft 105 kts 210°
2026-05-05 22:27 40.63715 -73.77377 34 ft 161 kts 208°
2026-05-05 22:27 40.62717 -73.78215 464 ft 178 kts 211°
2026-05-05 22:27 40.61689 -73.79163 786 ft 178 kts 212°
2026-05-05 22:28 40.60648 -73.79910 1525 ft 158 kts 190°
2026-05-05 22:28 40.59571 -73.79548 2211 ft 179 kts 149°
2026-05-05 22:28 40.58790 -73.78036 2408 ft 226 kts 113°
2026-05-05 22:28 40.58535 -73.75933 2601 ft 252 kts 100°
2026-05-05 22:29 40.58441 -73.73519 2839 ft 276 kts 97°
2026-05-05 22:29 40.58381 -73.70937 3351 ft 287 kts 96°
2026-05-05 22:29 40.58323 -73.68286 3993 ft 293 kts 95°
2026-05-05 22:29 40.58262 -73.65590 4698 ft 297 kts 96°
2026-05-05 22:30 40.58193 -73.62849 5293 ft 303 kts 95°
2026-05-05 22:30 40.58116 -73.60067 5969 ft 306 kts 95°
2026-05-05 22:30 40.58030 -73.57293 6574 ft 310 kts 95°
2026-05-05 22:30 40.57936 -73.54446 7211 ft 312 kts 95°
2026-05-05 22:31 40.57837 -73.51585 7843 ft 314 kts 95°
2026-05-05 22:31 40.57734 -73.48696 8379 ft 319 kts 95°
2026-05-05 22:31 40.57627 -73.45761 8935 ft 323 kts 95°
2026-05-05 22:31 40.57518 -73.42796 9478 ft 327 kts 95°
2026-05-05 22:32 40.57407 -73.39796 9994 ft 330 kts 95°
2026-05-05 22:32 40.57292 -73.36749 10351 ft 341 kts 95°
2026-05-05 22:32 40.57169 -73.33544 10483 ft 360 kts 94°
2026-05-05 22:32 40.57039 -73.30168 10662 ft 379 kts 94°
2026-05-05 22:33 40.56907 -73.26712 11153 ft 388 kts 95°
2026-05-05 22:33 40.56770 -73.23142 11846 ft 393 kts 95°
2026-05-05 22:33 40.56631 -73.19548 12731 ft 395 kts 95°
2026-05-05 22:33 40.56490 -73.15929 13584 ft 398 kts 95°
2026-05-05 22:34 40.56345 -73.12265 14322 ft 403 kts 94°
2026-05-05 22:34 40.56198 -73.08581 15095 ft 406 kts 94°
2026-05-05 22:34 40.56073 -73.04847 15770 ft 411 kts 91°
2026-05-05 22:34 40.56261 -73.01079 16453 ft 415 kts 82°
2026-05-05 22:35 40.56834 -72.97360 17156 ft 419 kts 74°
2026-05-05 22:35 40.57746 -72.93695 17820 ft 422 kts 70°
2026-05-05 22:35 40.58715 -72.90048 18514 ft 425 kts 70°
2026-05-05 22:35 40.59672 -72.86402 19090 ft 427 kts 70°
2026-05-05 22:36 40.60633 -72.82704 19748 ft 428 kts 70°
2026-05-05 22:36 40.61592 -72.78987 20374 ft 429 kts 70°
2026-05-05 22:36 40.62550 -72.75254 20948 ft 432 kts 70°
2026-05-05 22:36 40.63511 -72.71493 21523 ft 435 kts 70°
2026-05-05 22:37 40.64478 -72.67697 22011 ft 439 kts 70°
2026-05-05 22:37 40.65451 -72.63869 22568 ft 443 kts 70°
2026-05-05 22:37 40.66430 -72.60010 23037 ft 448 kts 70°
2026-05-05 22:37 40.67407 -72.56154 23532 ft 451 kts 70°
2026-05-05 22:38 40.68404 -72.52214 23911 ft 456 kts 70°
2026-05-05 22:38 40.69408 -72.48238 24343 ft 459 kts 70°
2026-05-05 22:38 40.70414 -72.44243 24856 ft 459 kts 69°
2026-05-05 22:38 40.71424 -72.40230 25300 ft 462 kts 69°
2026-05-05 22:39 40.72436 -72.36201 25760 ft 464 kts 69°
2026-05-05 22:39 40.73452 -72.32148 26184 ft 467 kts 69°
2026-05-05 22:39 40.74472 -72.28073 26667 ft 469 kts 69°
2026-05-05 22:39 40.75480 -72.24040 27104 ft 471 kts 70°
2026-05-05 22:40 40.76511 -72.19913 27406 ft 477 kts 70°
2026-05-05 22:40 40.77545 -72.15764 27930 ft 476 kts 70°
2026-05-05 22:40 40.78583 -72.11591 28348 ft 480 kts 70°
2026-05-05 22:40 40.79622 -72.07404 28747 ft 482 kts 70°
2026-05-05 22:41 40.80668 -72.03180 29152 ft 485 kts 70°
2026-05-05 22:41 40.81684 -71.99071 29550 ft 487 kts 70°
2026-05-05 22:41 40.82734 -71.94815 29961 ft 489 kts 70°
2026-05-05 22:41 40.83790 -71.90529 30293 ft 492 kts 69°
2026-05-05 22:42 40.84836 -71.86279 30628 ft 494 kts 69°
2026-05-05 22:42 40.85896 -71.81959 30967 ft 495 kts 69°
2026-05-05 22:42 40.86959 -71.77625 31300 ft 497 kts 69°
2026-05-05 22:42 40.88023 -71.73274 31604 ft 499 kts 69°
2026-05-05 22:43 40.89090 -71.68905 31918 ft 500 kts 69°
2026-05-05 22:43 40.90156 -71.64529 32217 ft 501 kts 69°
2026-05-05 22:43 40.91226 -71.60131 32486 ft 503 kts 69°
2026-05-05 22:43 40.92297 -71.55724 32740 ft 505 kts 69°
2026-05-05 22:44 40.93372 -71.51288 32963 ft 507 kts 69°
2026-05-05 22:44 40.94449 -71.46835 33259 ft 507 kts 69°
2026-05-05 22:44 40.95519 -71.42399 33622 ft 506 kts 69°
2026-05-05 22:44 40.96571 -71.38029 33986 ft 505 kts 69°
2026-05-05 22:45 40.97634 -71.33605 34283 ft 504 kts 70°
2026-05-05 22:45 40.98694 -71.29188 34556 ft 504 kts 70°
2026-05-05 22:45 40.99755 -71.24762 34842 ft 504 kts 70°
2026-05-05 22:45 41.00810 -71.20349 35127 ft 503 kts 70°
2026-05-05 22:46 41.01863 -71.15938 35429 ft 503 kts 70°
2026-05-05 22:46 41.02914 -71.11523 35704 ft 502 kts 70°
2026-05-05 22:46 41.03962 -71.07117 35971 ft 502 kts 70°
2026-05-05 22:46 41.05013 -71.02689 36203 ft 503 kts 71°
2026-05-05 22:47 41.06028 -70.98404 36460 ft 502 kts 71°
2026-05-05 22:47 41.07070 -70.93996 36731 ft 502 kts 71°
2026-05-05 22:47 41.08100 -70.89632 36914 ft 503 kts 71°
2026-05-05 22:48 41.10194 -70.80731 36969 ft 508 kts 71°
2026-05-05 22:48 41.12279 -70.71832 36963 ft 501 kts 71°
2026-05-05 22:49 41.14333 -70.63028 36966 ft 499 kts 71°
2026-05-05 22:49 41.16379 -70.54229 36973 ft 499 kts 72°
2026-05-05 22:50 41.18074 -70.46916 36972 ft 499 kts 72°
2026-05-05 22:50 41.20437 -70.36677 36977 ft 500 kts 72°
2026-05-05 22:51 41.22469 -70.27835 36983 ft 501 kts 72°
2026-05-05 22:51 41.24498 -70.18971 36979 ft 502 kts 72°
2026-05-05 22:52 41.26181 -70.11595 36983 ft 503 kts 72°
2026-05-05 22:52 41.28768 -70.03001 36980 ft 501 kts 59°
2026-05-05 22:53 41.32660 -69.95538 36981 ft 498 kts 47°
2026-05-05 22:53 41.37234 -69.88620 36988 ft 498 kts 46°
2026-05-05 22:54 41.41756 -69.81711 36985 ft 498 kts 47°
2026-05-05 22:54 41.46280 -69.74711 37000 ft 499 kts 47°
2026-05-05 22:55 41.50791 -69.67682 36995 ft 499 kts 47°
2026-05-05 22:55 41.55297 -69.60643 37000 ft 499 kts 47°
2026-05-05 22:56 41.59805 -69.53588 37005 ft 499 kts 47°
2026-05-05 22:56 41.64311 -69.46522 36996 ft 499 kts 48°
2026-05-05 22:57 41.68813 -69.39447 36999 ft 500 kts 48°
2026-05-05 22:57 41.73283 -69.32404 37005 ft 500 kts 48°
2026-05-05 22:58 41.77779 -69.25304 36996 ft 500 kts 48°
2026-05-05 22:58 41.82275 -69.18186 36990 ft 500 kts 48°
2026-05-05 22:59 41.86768 -69.11056 36998 ft 500 kts 48°
2026-05-05 22:59 41.91255 -69.03920 36998 ft 501 kts 48°
2026-05-05 23:00 41.97881 -68.93349 36998 ft 501 kts 48°
2026-05-05 23:00 42.02366 -68.86172 36994 ft 502 kts 48°
2026-05-05 23:01 42.06850 -68.78980 36996 ft 502 kts 48°
2026-05-05 23:01 42.11338 -68.71765 37003 ft 502 kts 48°
2026-05-05 23:02 42.15818 -68.64542 36993 ft 502 kts 49°
2026-05-05 23:02 42.20298 -68.57305 37005 ft 503 kts 49°
2026-05-05 23:03 42.24777 -68.50051 36980 ft 503 kts 49°
2026-05-05 23:03 42.29214 -68.42848 37003 ft 502 kts 49°
2026-05-05 23:04 42.33668 -68.35597 37001 ft 502 kts 49°
2026-05-05 23:04 42.38125 -68.28326 36994 ft 502 kts 49°
2026-05-05 23:05 42.42577 -68.21045 36990 ft 502 kts 49°
2026-05-05 23:05 42.46948 -68.13878 36997 ft 501 kts 49°
2026-05-05 23:06 42.51356 -68.06635 36994 ft 502 kts 49°
2026-05-05 23:06 42.55715 -67.99453 36986 ft 502 kts 49°
2026-05-05 23:07 42.60151 -67.92128 36989 ft 502 kts 49°
2026-05-05 23:07 42.64580 -67.84795 36989 ft 502 kts 49°
2026-05-05 23:08 42.69004 -67.77451 36992 ft 502 kts 49°
2026-05-05 23:08 42.73423 -67.70098 36993 ft 502 kts 49°
2026-05-05 23:09 42.77809 -67.62782 37004 ft 502 kts 49°
2026-05-05 23:09 42.82222 -67.55404 36994 ft 503 kts 49°
2026-05-05 23:10 42.86628 -67.48018 36994 ft 503 kts 49°
2026-05-05 23:10 42.91037 -67.40607 36996 ft 503 kts 49°
2026-05-05 23:11 42.95442 -67.33187 36996 ft 503 kts 49°
2026-05-05 23:11 42.99844 -67.25750 36994 ft 503 kts 49°
2026-05-05 23:12 43.04233 -67.18317 36995 ft 503 kts 49°
2026-05-05 23:12 43.08596 -67.10911 36992 ft 503 kts 49°
2026-05-05 23:13 43.12986 -67.03439 36999 ft 504 kts 50°
2026-05-05 23:13 43.17251 -66.96059 36998 ft 504 kts 51°
2026-05-05 23:14 43.21437 -66.88351 36999 ft 504 kts 52°
2026-05-05 23:14 43.25592 -66.80588 36990 ft 505 kts 52°
2026-05-05 23:15 43.29729 -66.72895 36986 ft 505 kts 52°
2026-05-05 23:15 43.33909 -66.65148 36986 ft 505 kts 52°
2026-05-05 23:16 43.38090 -66.57392 36983 ft 505 kts 52°
2026-05-05 23:16 43.42261 -66.49632 36984 ft 505 kts 52°
2026-05-05 23:17 43.46430 -66.41850 36980 ft 505 kts 52°
2026-05-05 23:17 43.50564 -66.34114 36976 ft 505 kts 52°
2026-05-05 23:18 43.54725 -66.26307 36977 ft 505 kts 52°
2026-05-05 23:18 43.58881 -66.18488 36983 ft 506 kts 52°
2026-05-05 23:19 43.63036 -66.10652 36970 ft 506 kts 52°
2026-05-05 23:19 43.67152 -66.02867 36967 ft 506 kts 52°
2026-05-05 23:20 43.71236 -65.95121 36969 ft 506 kts 52°
2026-05-05 23:20 43.75372 -65.87256 36974 ft 505 kts 53°
2026-05-05 23:21 43.79500 -65.79386 36976 ft 505 kts 53°
2026-05-05 23:21 43.83617 -65.71517 36988 ft 504 kts 53°
2026-05-05 23:22 43.87690 -65.63710 36994 ft 503 kts 53°
2026-05-05 23:22 43.91790 -65.55830 37006 ft 503 kts 53°
2026-05-05 23:23 43.95882 -65.47944 37005 ft 503 kts 53°
2026-05-05 23:23 43.99966 -65.40052 37005 ft 504 kts 53°
2026-05-05 23:24 44.04012 -65.32213 37002 ft 504 kts 53°
2026-05-05 23:24 44.08089 -65.24291 37003 ft 504 kts 53°
2026-05-05 23:25 44.12167 -65.16348 36999 ft 504 kts 53°
2026-05-05 23:25 44.16239 -65.08394 36997 ft 504 kts 53°
2026-05-05 23:26 44.20307 -65.00424 36996 ft 505 kts 53°
2026-05-05 23:26 44.24281 -64.92619 37002 ft 506 kts 53°
2026-05-05 23:27 44.28347 -64.84612 37004 ft 506 kts 53°
2026-05-05 23:27 44.32411 -64.76585 36993 ft 507 kts 53°
2026-05-05 23:28 44.36476 -64.68534 36983 ft 507 kts 53°
2026-05-05 23:28 44.40506 -64.60532 36957 ft 507 kts 53°
2026-05-05 23:29 44.44563 -64.52453 36976 ft 507 kts 53°
2026-05-05 23:29 44.48612 -64.44367 36958 ft 507 kts 53°
2026-05-05 23:30 44.52654 -64.36272 36972 ft 507 kts 53°
2026-05-05 23:30 44.56688 -64.28171 36970 ft 506 kts 54°
2026-05-05 23:31 44.60679 -64.20133 36945 ft 505 kts 54°
2026-05-05 23:31 44.64683 -64.12048 36967 ft 504 kts 54°
2026-05-05 23:32 44.68680 -64.03952 36970 ft 503 kts 54°
2026-05-05 23:32 44.72607 -63.95978 36984 ft 503 kts 54°
2026-05-05 23:33 44.76582 -63.87882 36975 ft 503 kts 54°
2026-05-05 23:33 44.80526 -63.79828 36973 ft 503 kts 54°
2026-05-05 23:34 44.84492 -63.71706 36976 ft 503 kts 54°
2026-05-05 23:34 44.88452 -63.63573 36993 ft 504 kts 54°
2026-05-05 23:35 44.92418 -63.55403 36986 ft 505 kts 54°
2026-05-05 23:35 44.96353 -63.47277 36994 ft 505 kts 54°
2026-05-05 23:36 45.00300 -63.39102 36983 ft 505 kts 54°
2026-05-05 23:36 45.04252 -63.30891 36990 ft 505 kts 54°
2026-05-05 23:37 45.08195 -63.22677 36988 ft 505 kts 54°
2026-05-05 23:37 45.12139 -63.14438 36989 ft 505 kts 54°
2026-05-05 23:38 45.16041 -63.06262 36999 ft 505 kts 54°
2026-05-05 23:38 45.19911 -62.98129 36999 ft 505 kts 54°
2026-05-05 23:39 45.23835 -62.89861 36998 ft 506 kts 54°
2026-05-05 23:39 45.27757 -62.81571 36992 ft 506 kts 54°
2026-05-05 23:40 45.31647 -62.73326 36983 ft 506 kts 54°
2026-05-05 23:40 45.35553 -62.65021 36987 ft 506 kts 54°
2026-05-05 23:41 45.39461 -62.56689 36987 ft 506 kts 54°
2026-05-05 23:41 45.43359 -62.48355 36979 ft 506 kts 54°
2026-05-05 23:42 45.47251 -62.40008 36963 ft 506 kts 54°
2026-05-05 23:42 45.51113 -62.31701 36979 ft 506 kts 54°
2026-05-05 23:43 45.54994 -62.23331 36978 ft 506 kts 54°
2026-05-05 23:43 45.58869 -62.14945 36970 ft 506 kts 54°
2026-05-05 23:44 45.62739 -62.06547 36962 ft 506 kts 54°
2026-05-05 23:44 45.66514 -61.98331 36967 ft 506 kts 54°
2026-05-05 23:45 45.70368 -61.89919 36963 ft 505 kts 54°
2026-05-05 23:45 45.74215 -61.81496 36951 ft 506 kts 54°
2026-05-05 23:46 45.78055 -61.73065 36967 ft 505 kts 54°
2026-05-05 23:46 45.81863 -61.64676 36976 ft 505 kts 54°
2026-05-05 23:47 45.85688 -61.56226 36978 ft 506 kts 54°
2026-05-05 23:47 45.89516 -61.47746 36981 ft 506 kts 54°
2026-05-05 23:48 45.93336 -61.39255 36963 ft 507 kts 54°
2026-05-05 23:48 45.97156 -61.30740 36968 ft 507 kts 54°
2026-05-05 23:49 46.00931 -61.22300 36982 ft 507 kts 54°
2026-05-05 23:49 46.04740 -61.13756 36969 ft 507 kts 54°
2026-05-05 23:50 46.08543 -61.05201 36969 ft 507 kts 54°
2026-05-05 23:50 46.12290 -60.96746 36961 ft 508 kts 54°
2026-05-05 23:51 46.16054 -60.88228 36984 ft 507 kts 54°
2026-05-05 23:51 46.19832 -60.79650 36953 ft 506 kts 54°
2026-05-05 23:52 46.23595 -60.71080 36966 ft 505 kts 54°
2026-05-05 23:52 46.27338 -60.62529 36962 ft 504 kts 54°
2026-05-05 23:53 46.31084 -60.53948 36958 ft 505 kts 54°
2026-05-05 23:53 46.34798 -60.45413 36962 ft 505 kts 54°
2026-05-05 23:54 46.38538 -60.36792 36958 ft 506 kts 54°
2026-05-05 23:54 46.42273 -60.28153 36961 ft 506 kts 54°
2026-05-05 23:55 46.46012 -60.19482 36963 ft 508 kts 54°
2026-05-05 23:55 46.49725 -60.10840 36962 ft 509 kts 54°
2026-05-05 23:56 46.53462 -60.02116 36970 ft 509 kts 55°
2026-05-05 23:56 46.57130 -59.93527 36980 ft 510 kts 54°
2026-05-05 23:57 46.60862 -59.84759 36962 ft 510 kts 54°
2026-05-05 23:57 46.64560 -59.76045 36984 ft 510 kts 54°
2026-05-05 23:58 46.68276 -59.67262 36983 ft 509 kts 55°
2026-05-05 23:58 46.71980 -59.58477 36976 ft 509 kts 54°
2026-05-05 23:59 46.75676 -59.49682 37002 ft 508 kts 54°
2026-05-05 23:59 46.79362 -59.40886 37001 ft 508 kts 55°
2026-05-06 00:00 46.83018 -59.32138 37003 ft 508 kts 55°
2026-05-06 00:00 46.86684 -59.23329 36989 ft 508 kts 55°
2026-05-06 00:01 46.90346 -59.14502 36987 ft 508 kts 55°
2026-05-06 00:01 46.93999 -59.05672 37016 ft 507 kts 55°
2026-05-06 00:02 46.97534 -58.97099 37023 ft 507 kts 55°
2026-05-06 00:02 47.01167 -58.88261 37011 ft 507 kts 55°
2026-05-06 00:03 47.04800 -58.79393 37005 ft 508 kts 55°
2026-05-06 00:03 47.08428 -58.70509 37013 ft 508 kts 55°
2026-05-06 00:04 47.12050 -58.61612 37026 ft 508 kts 55°
2026-05-06 00:04 47.15646 -58.52748 37021 ft 508 kts 55°
2026-05-06 00:05 47.21056 -58.39359 37031 ft 508 kts 56°
2026-05-06 00:06 47.24652 -58.30423 37060 ft 508 kts 55°
2026-05-06 00:06 47.28243 -58.21470 37046 ft 508 kts 56°
2026-05-06 00:07 47.31803 -58.12564 37038 ft 508 kts 56°
2026-05-06 00:07 47.35378 -58.03592 37044 ft 507 kts 56°
2026-05-06 00:08 47.38882 -57.94769 37072 ft 508 kts 56°
2026-05-06 00:08 47.42450 -57.85756 37062 ft 509 kts 56°
2026-05-06 00:09 47.45990 -57.76783 37060 ft 509 kts 56°
2026-05-06 00:09 47.49549 -57.67732 37061 ft 510 kts 56°
2026-05-06 00:10 47.53110 -57.58646 37085 ft 511 kts 56°
2026-05-06 00:10 47.56666 -57.49542 37076 ft 511 kts 56°
2026-05-06 00:11 47.60219 -57.40413 37074 ft 512 kts 56°
2026-05-06 00:11 47.63741 -57.31332 37077 ft 512 kts 56°
2026-05-06 00:12 47.67282 -57.22174 37073 ft 512 kts 56°
2026-05-06 00:12 47.70815 -57.13004 37067 ft 511 kts 56°
2026-05-06 00:13 47.74332 -57.03843 37051 ft 510 kts 56°
2026-05-06 00:13 47.77775 -56.94847 37050 ft 509 kts 56°
2026-05-06 00:14 47.81241 -56.85759 37041 ft 509 kts 56°
2026-05-06 00:14 47.84723 -56.76598 37021 ft 508 kts 56°
2026-05-06 00:15 47.88195 -56.67431 37016 ft 509 kts 56°
2026-05-06 00:15 47.91666 -56.58237 37003 ft 509 kts 56°
2026-05-06 00:16 47.95110 -56.49083 36999 ft 510 kts 56°
2026-05-06 00:16 47.98577 -56.39836 36979 ft 511 kts 56°
2026-05-06 00:17 48.02036 -56.30575 36978 ft 512 kts 56°
2026-05-06 00:17 48.05498 -56.21276 36976 ft 512 kts 56°
2026-05-06 00:18 48.08931 -56.12019 36981 ft 513 kts 56°
2026-05-06 00:18 48.12386 -56.02673 36974 ft 513 kts 56°
2026-05-06 00:19 48.15771 -55.93481 36987 ft 512 kts 56°
2026-05-06 00:19 48.19206 -55.84123 36982 ft 512 kts 56°
2026-05-06 00:20 48.22632 -55.74759 37057 ft 514 kts 56°
2026-05-06 00:20 48.24325 -55.70119 37284 ft 514 kts 56°
2026-05-06 00:20 48.26040 -55.65410 37566 ft 513 kts 56°
2026-05-06 00:20 48.27748 -55.60709 37846 ft 513 kts 56°
2026-05-06 00:21 48.29453 -55.56008 38094 ft 513 kts 57°
2026-05-06 00:21 48.31156 -55.51307 38339 ft 513 kts 57°
2026-05-06 00:21 48.32858 -55.46600 38589 ft 514 kts 56°
2026-05-06 00:21 48.34565 -55.41871 38739 ft 514 kts 57°
2026-05-06 00:22 48.36270 -55.37139 38898 ft 515 kts 57°
2026-05-06 00:22 48.39691 -55.27621 38957 ft 519 kts 57°
2026-05-06 00:23 48.43086 -55.18130 38987 ft 516 kts 57°
2026-05-06 00:23 48.46457 -55.08667 39022 ft 510 kts 57°
2026-05-06 00:24 48.49739 -54.99430 39005 ft 507 kts 57°
2026-05-06 00:24 48.53054 -54.90071 38998 ft 504 kts 57°
2026-05-06 00:25 48.56349 -54.80738 39000 ft 503 kts 57°
2026-05-06 00:25 48.59612 -54.71460 39045 ft 504 kts 58°
2026-05-06 00:26 48.62905 -54.62066 39031 ft 507 kts 58°
2026-05-06 00:26 48.66206 -54.52609 38999 ft 509 kts 58°
2026-05-06 00:27 48.69509 -54.43108 38991 ft 511 kts 58°
2026-05-06 00:27 48.72794 -54.33626 39018 ft 512 kts 58°
2026-05-06 00:28 48.76096 -54.24062 39009 ft 512 kts 58°
2026-05-06 00:28 48.79384 -54.14498 38999 ft 511 kts 58°
2026-05-06 00:29 48.82661 -54.04934 38984 ft 510 kts 58°
2026-05-06 00:29 48.85846 -53.95605 39013 ft 508 kts 59°
2026-05-06 00:30 48.89088 -53.86074 39003 ft 507 kts 59°
2026-05-06 00:30 48.90688 -53.81351 38997 ft 495 kts 59°
2026-05-06 00:30 48.92237 -53.76761 38986 ft 480 kts 59°
2026-05-06 00:31 48.95226 -53.67895 39003 ft 468 kts 59°
2026-05-06 00:31 48.98197 -53.59089 39005 ft 467 kts 59°
2026-05-06 00:32 49.01128 -53.50362 39009 ft 467 kts 59°
2026-05-06 00:32 49.04080 -53.41535 39022 ft 468 kts 59°
2026-05-06 00:33 49.07027 -53.32687 39023 ft 468 kts 59°
2026-05-06 00:33 49.09965 -53.23832 39023 ft 468 kts 59°
2026-05-06 00:34 49.12883 -53.15012 39031 ft 469 kts 59°
2026-05-06 00:34 49.15818 -53.06105 39026 ft 469 kts 59°
2026-05-06 00:35 49.18698 -52.97336 39015 ft 470 kts 59°
2026-05-06 00:35 49.21619 -52.88412 39015 ft 469 kts 59°
2026-05-06 00:36 49.24508 -52.79553 39047 ft 469 kts 59°
2026-05-06 00:36 49.27411 -52.70620 39037 ft 469 kts 59°
2026-05-06 00:37 49.30309 -52.61671 39029 ft 469 kts 60°
2026-05-06 00:37 49.33198 -52.52718 39035 ft 468 kts 60°
2026-05-06 00:38 49.36076 -52.43769 39032 ft 468 kts 60°
2026-05-06 00:38 49.38931 -52.34858 39024 ft 468 kts 60°
2026-05-06 00:39 49.41795 -52.25886 39027 ft 468 kts 60°
2026-05-06 00:39 49.44649 -52.16912 39022 ft 468 kts 60°